Wind_Speed
19 18 20 17 15 15 15 14 13 11 10 10 9 8 7 6 6 6 6 4 2 4 6 11 12 10 9 6 5 6 5 3 2 2 5 5 5 4 3 4 6 6 9
20 19 20 19 17 17 14 13 13 12 11 10 8 7 7 6 6 6 6 1 11 11 11 14 12 11 10 6 4 5 3 3 3 3 1 2 3 5 6 7 8 9 9
21 20 21 20 19 18 16 15 12 10 8 6 5 4 7 4 4 3 4 12 14 9 15 12 11 12 5 4 4 4 5 5 4 4 5 7 8 9 9 9 11 7 8
21 19 19 19 18 18 16 15 12 10 8 5 5 4 7 3 5 6 9 14 15 14 15 14 11 5 2 2 2 6 8 7 7 7 7 8 10 11 11 10 9 9 8
19 16 16 19 18 17 16 15 13 10 8 6 6 5 6 7 8 8 9 13 14 17 14 11 8 4 1 4 7 9 9 8 7 7 7 8 10 10 7 7 7 5 5
20 17 16 18 18 15 16 15 12 12 10 9 6 7 7 8 9 10 10 13 15 14 11 8 6 5 6 7 8 7 8 7 7 8 7 6 8 4 2 2 3 4 6
18 18 17 17 15 14 13 13 13 12 12 11 10 8 7 8 9 10 11 12 12 11 10 9 9 8 7 7 6 5 5 5 6 5 5 4 5 4 4 4 3 3 5
17 17 17 16 15 14 13 12 11 10 12 13 12 8 7 9 10 10 11 11 11 11 11 10 9 7 6 4 4 3 3 3 4 3 2 2 2 5 4 2 2 2 2
15 17 16 15 15 13 11 9 11 11 14 16 14 10 9 9 10 10 10 10 10 10 10 9 7 5 4 4 4 4 4 3 2 2 1 2 4 4 2 1 2 3 4
13 15 15 15 15 13 12 10 11 12 13 15 16 12 12 11 10 10 9 9 9 9 9 7 5 4 3 4 3 3 3 2 1 1 1 2 3 2 3 2 4 5 6
15 16 16 16 15 14 13 12 12 12 12 15 17 15 15 14 12 11 10 9 9 9 8 6 4 3 3 2 2 2 1 1 1 3 3 0 5 5 4 5 8 7 7
18 18 18 17 16 15 14 14 13 13 14 15 15 16 16 15 13 11 11 10 10 10 9 8 5 4 3 1 1 2 2 3 4 4 3 1 4 4 4 7 2 3 3
15 16 17 18 18 18 17 15 15 15 14 16 16 17 17 16 15 14 14 13 12 11 9 8 6 5 3 3 3 4 4 4 5 4 3 6 7 8 5 7 2 2 2
17 17 16 17 19 20 19 18 17 18 17 17 17 18 19 18 16 15 16 15 14 12 11 10 8 7 5 4 5 5 6 6 5 4 5 7 9 8 6 2 1 1 2
18 17 17 17 18 18 19 19 20 20 20 18 18 20 21 20 18 17 17 17 16 14 13 11 10 9 7 6 6 7 7 6 5 5 6 7 7 7 4 2 2 2 2
20 21 19 19 19 19 20 21 20 20 20 21 21 21 21 22 21 20 19 18 17 16 14 13 11 11 9 8 8 8 8 6 6 6 7 8 7 6 5 4 4 3 3
20 21 24 23 22 22 21 21 21 21 21 22 22 22 23 23 24 23 21 21 19 18 17 16 14 13 11 9 9 9 9 8 8 8 8 8 8 8 7 6 5 5 6
23 23 24 29 28 27 26 25 24 23 23 22 23 24 24 25 25 25 25 24 21 21 19 18 16 14 13 11 10 11 11 10 10 10 10 10 10 9 8 9 7 6 6
28 29 28 27 32 31 29 30 29 28 26 25 25 25 25 26 26 27 27 26 24 24 22 21 19 15 13 12 12 12 13 13 12 12 12 12 12 11 10 9 8 8 7
28 27 29 31 31 31 32 33 33 31 33 32 31 29 27 28 27 28 28 27 27 26 26 24 22 17 15 16 14 15 15 14 14 14 14 15 14 13 12 10 10 10 9
25 26 27 29 35 35 35 36 36 35 32 37 36 33 31 30 30 28 28 29 31 30 28 25 24 22 22 19 17 17 17 17 17 17 17 17 17 15 14 13 12 12 12
26 26 26 28 27 33 40 40 40 39 38 35 37 39 35 34 33 31 31 33 34 33 30 28 26 26 25 21 20 17 13 18 20 20 20 20 19 18 17 16 16 15 15
13 21 28 29 29 29 29 34 42 42 41 39 40 38 40 40 38 33 34 34 34 36 34 29 29 29 30 24 23 19 9 12 16 22 24 23 22 20 19 19 18 18 17
5 9 14 24 32 32 29 29 33 41 44 44 42 41 39 41 42 39 36 36 34 35 38 36 31 32 32 32 28 28 26 18 11 9 22 25 24 23 22 21 20 20 20
11 8 8 10 16 27 34 32 32 33 33 35 39 39 39 40 43 43 40 37 36 37 39 41 39 37 36 36 34 31 30 28 26 20 14 20 25 25 24 23 22 22 23
13 11 10 9 9 11 22 27 30 33 34 34 32 32 34 37 38 43 43 41 40 39 40 40 41 41 38 38 37 36 33 31 30 28 24 21 20 22 24 24 24 24 25
Wind_Direction
178 174 159 166 160 156 157 161 165 171 177 178 195 203 209 222 248 269 274 282 341 85 127 127 124 130 132 123 149 168 184 195 284 303 287 305 319 335 9 34 55 80 96
176 177 163 166 162 159 156 158 167 175 189 174 193 207 214 228 251 269 272 177 120 107 113 133 137 128 121 86 98 138 152 185 211 236 304 39 59 73 76 66 76 81 91
174 173 167 171 171 160 166 170 174 183 198 192 196 226 213 228 236 234 146 135 131 100 133 133 138 137 103 79 70 119 126 120 111 103 95 79 83 79 74 69 68 82 85
175 173 167 163 163 159 170 171 174 173 181 183 163 122 150 160 148 140 140 145 139 135 136 136 139 142 105 26 82 112 111 104 97 93 101 92 81 74 67 64 69 74 74
173 176 174 167 163 159 169 170 168 180 194 190 185 150 119 120 118 121 132 146 153 147 148 153 167 175 163 113 110 107 101 95 94 94 102 101 83 72 63 62 59 64 58
172 176 179 168 168 168 177 182 176 185 191 181 186 148 125 121 117 116 122 135 133 143 151 154 159 150 127 116 116 108 104 92 96 85 93 90 88 64 36 61 41 61 64
177 177 183 172 168 171 184 183 186 194 188 186 171 153 139 133 127 124 123 132 141 143 141 139 139 136 129 121 119 113 109 89 98 86 88 79 70 14 19 94 136 125 105
186 184 186 179 174 180 186 186 184 188 188 172 182 171 161 150 142 137 133 133 136 138 138 137 136 135 121 110 107 108 113 100 98 94 69 42 37 17 32 34 242 241 133
194 191 192 182 180 190 192 193 188 179 184 172 189 175 172 165 154 149 146 143 144 146 144 142 140 136 124 114 105 100 104 110 90 84 47 18 5 36 56 291 303 313 278
198 200 197 191 192 196 200 201 199 194 179 185 191 194 181 176 169 161 157 156 157 158 154 155 159 153 139 124 112 109 90 86 61 23 355 348 48 134 181 237 282 303 305
194 199 202 202 201 205 209 212 212 205 204 198 200 204 190 186 185 183 171 175 171 170 167 171 181 170 149 122 104 86 70 360 307 303 304 350 234 235 248 268 278 287 301
200 200 203 208 208 211 215 219 221 224 210 213 210 202 195 197 198 201 191 189 187 188 187 194 196 196 189 209 300 321 316 306 299 290 284 211 227 231 271 287 291 298 327
208 210 211 214 214 219 222 227 228 229 227 224 218 212 210 209 210 212 209 205 204 208 209 209 214 218 229 247 285 300 302 302 298 284 240 187 233 266 274 287 284 324 7
221 220 221 220 221 226 230 232 236 236 232 229 229 225 222 220 218 221 219 216 216 219 219 218 222 225 236 261 279 288 297 301 292 268 238 243 256 277 292 263 291 314 340
233 236 235 229 231 236 242 238 238 239 237 239 237 232 229 227 226 225 222 223 225 225 226 227 227 227 236 257 274 282 283 285 276 257 242 251 259 270 266 261 261 286 304
249 247 244 241 239 241 244 248 247 245 241 242 242 240 238 235 233 231 229 231 233 231 233 233 231 228 236 255 272 278 280 276 262 248 237 244 250 252 248 246 241 257 280
261 261 256 253 251 247 250 250 248 248 244 244 244 244 243 241 239 237 235 236 235 235 234 233 229 231 238 253 270 271 271 264 250 241 241 238 239 237 239 238 238 250 269
255 257 258 255 254 253 252 253 252 250 247 248 247 245 246 244 240 240 239 238 235 234 237 234 228 231 237 251 265 268 264 255 244 238 236 236 232 234 233 238 246 252 271
256 251 250 254 251 249 249 252 255 256 252 253 253 250 247 245 240 240 240 239 234 234 236 234 231 231 241 254 262 262 256 250 244 238 235 233 232 233 235 241 246 264 271
259 256 251 243 244 246 245 250 252 250 247 247 247 249 250 248 244 240 240 236 232 233 233 230 228 231 245 255 257 256 250 247 243 239 234 233 234 234 237 239 252 260 270
266 259 256 252 242 237 237 238 242 244 245 245 244 245 247 249 250 243 238 233 230 233 233 229 224 230 238 245 246 246 245 243 241 239 234 231 234 236 239 245 254 259 268
261 257 254 250 250 246 243 242 245 246 245 246 248 244 245 247 248 247 242 234 230 231 225 225 225 230 233 240 239 239 238 241 241 238 232 232 234 238 242 248 255 259 267
268 253 248 246 245 247 247 245 245 247 248 246 245 245 240 242 244 243 244 244 236 232 230 231 228 228 233 230 239 228 215 226 229 234 231 232 234 240 244 250 257 261 268
324 280 263 247 240 237 242 248 245 246 246 247 248 249 246 242 244 244 244 243 243 238 233 231 229 228 229 232 228 231 235 241 221 230 234 233 235 241 244 249 256 261 270
9 350 328 298 268 244 234 242 247 250 253 255 254 253 253 251 244 244 244 245 243 242 242 237 232 229 232 233 235 237 233 234 238 238 246 237 237 239 241 246 252 259 269
3 346 330 325 321 275 247 245 245 247 251 252 253 252 252 253 251 246 243 244 246 245 244 244 241 237 234 237 238 242 245 242 237 234 235 243 241 238 241 246 252 260 269
Height
1530 1532 1535 1538 1540 1542 1544 1546 1549 1551 1552 1553 1554 1555 1556 1557 1557 1558 1558 1560 1561 1560 1560 1561 1563 1564 1564 1565 1565 1567 1567 1567 1567 1567 1568 1568 1568 1567 1566 1566 1565 1564 1564
1529 1532 1535 1538 1540 1543 1545 1547 1549 1551 1552 1553 1554 1555 1556 1557 1557 1558 1558 1560 1562 1561 1562 1563 1564 1565 1565 1566 1566 1567 1567 1568 1568 1568 1568 1568 1567 1567 1567 1566 1566 1566 1566
1528 1532 1534 1538 1540 1543 1545 1547 1549 1551 1552 1553 1554 1555 1556 1557 1557 1558 1558 1560 1562 1562 1563 1564 1565 1565 1566 1567 1567 1567 1567 1568 1569 1568 1568 1569 1568 1568 1568 1568 1567 1567 1567
1529 1532 1534 1537 1540 1543 1545 1547 1549 1551 1552 1554 1555 1555 1557 1558 1558 1558 1559 1561 1563 1564 1565 1565 1566 1567 1567 1568 1568 1568 1568 1569 1569 1569 1569 1569 1569 1570 1570 1569 1568 1568 1568
1530 1533 1535 1537 1540 1543 1545 1547 1549 1550 1552 1554 1555 1557 1557 1558 1559 1559 1560 1561 1562 1564 1565 1567 1567 1567 1568 1568 1569 1569 1570 1570 1570 1570 1570 1571 1571 1571 1571 1571 1570 1569 1569
1530 1533 1535 1537 1540 1543 1545 1547 1549 1551 1552 1554 1555 1557 1558 1559 1559 1560 1560 1561 1563 1565 1566 1567 1567 1568 1569 1569 1570 1571 1570 1571 1571 1571 1571 1572 1572 1572 1572 1572 1571 1570 1569
1532 1534 1535 1537 1540 1543 1545 1547 1548 1551 1552 1554 1555 1556 1558 1559 1560 1561 1562 1563 1564 1565 1566 1567 1568 1568 1569 1570 1571 1571 1571 1571 1571 1572 1572 1573 1573 1573 1572 1572 1571 1570 1570
1533 1535 1536 1538 1541 1543 1545 1546 1548 1550 1551 1553 1555 1557 1558 1559 1560 1562 1563 1564 1565 1566 1567 1568 1569 1569 1570 1570 1571 1571 1572 1572 1572 1572 1573 1573 1573 1572 1572 1571 1570 1570 1569
1533 1535 1537 1539 1541 1544 1545 1546 1547 1549 1551 1553 1555 1556 1558 1560 1561 1562 1563 1564 1565 1567 1568 1568 1569 1570 1570 1571 1571 1571 1572 1572 1572 1572 1572 1573 1573 1572 1572 1571 1569 1569 1569
1533 1535 1538 1539 1541 1544 1545 1547 1548 1549 1551 1554 1555 1556 1557 1559 1561 1562 1563 1564 1566 1567 1568 1569 1569 1569 1570 1571 1571 1571 1571 1572 1572 1572 1572 1572 1572 1572 1570 1570 1569 1567 1568
1531 1534 1536 1538 1541 1543 1545 1547 1548 1549 1551 1552 1554 1555 1557 1559 1560 1561 1562 1564 1566 1567 1568 1569 1569 1570 1570 1571 1571 1571 1571 1571 1571 1571 1572 1572 1571 1570 1570 1569 1568 1567 1566
1530 1532 1534 1538 1540 1542 1544 1545 1547 1548 1550 1552 1553 1554 1556 1557 1559 1560 1562 1563 1565 1566 1567 1568 1569 1569 1570 1570 1571 1571 1571 1571 1571 1570 1570 1571 1570 1569 1569 1567 1567 1567 1566
1530 1532 1534 1536 1538 1540 1542 1544 1545 1547 1549 1550 1552 1553 1555 1556 1557 1559 1561 1562 1563 1564 1566 1567 1568 1568 1569 1569 1569 1569 1569 1570 1570 1569 1569 1570 1569 1568 1568 1566 1566 1566 1565
1529 1530 1532 1535 1537 1538 1540 1541 1543 1545 1546 1548 1550 1551 1553 1554 1556 1557 1559 1561 1562 1563 1564 1565 1566 1566 1567 1568 1568 1568 1568 1568 1568 1568 1568 1567 1567 1567 1566 1565 1565 1566 1565
1526 1527 1530 1532 1533 1536 1537 1539 1541 1542 1544 1546 1547 1548 1550 1552 1553 1555 1556 1558 1559 1561 1562 1562 1563 1564 1565 1566 1566 1566 1566 1565 1565 1566 1566 1566 1565 1565 1565 1564 1564 1564 1564
1525 1525 1528 1528 1530 1532 1533 1535 1537 1539 1540 1542 1544 1545 1547 1549 1550 1552 1554 1555 1557 1559 1560 1561 1562 1562 1562 1563 1563 1564 1564 1563 1563 1564 1564 1564 1564 1564 1564 1563 1563 1562 1563
1521 1522 1524 1525 1527 1527 1529 1531 1533 1535 1536 1537 1539 1541 1543 1545 1547 1548 1550 1551 1554 1556 1557 1557 1558 1560 1560 1560 1561 1561 1561 1561 1561 1561 1562 1562 1562 1562 1562 1562 1561 1561 1561
1517 1516 1518 1519 1521 1523 1524 1525 1528 1530 1531 1533 1534 1537 1538 1540 1542 1544 1546 1547 1550 1552 1553 1554 1555 1557 1557 1557 1558 1558 1558 1558 1559 1558 1558 1559 1559 1559 1559 1560 1560 1559 1559
1510 1511 1512 1513 1515 1517 1519 1521 1522 1525 1527 1529 1530 1532 1533 1535 1537 1539 1541 1543 1545 1547 1549 1551 1552 1553 1554 1554 1554 1555 1555 1555 1556 1556 1556 1556 1557 1557 1557 1557 1558 1558 1558
1502 1503 1505 1506 1508 1511 1513 1514 1516 1518 1520 1522 1524 1525 1528 1529 1531 1533 1535 1538 1540 1541 1543 1545 1548 1549 1551 1551 1550 1551 1551 1551 1552 1553 1552 1554 1554 1554 1554 1554 1555 1555 1555
1495 1496 1498 1498 1501 1503 1504 1506 1507 1509 1512 1514 1516 1518 1521 1523 1524 1526 1528 1532 1533 1534 1537 1541 1542 1544 1546 1546 1547 1547 1547 1547 1548 1549 1549 1549 1550 1551 1551 1552 1552 1552 1552
1486 1488 1490 1492 1494 1495 1496 1499 1500 1502 1504 1507 1508 1512 1514 1516 1517 1519 1521 1524 1526 1529 1531 1533 1536 1538 1540 1541 1542 1544 1544 1544 1543 1543 1544 1545 1546 1547 1547 1548 1548 1548 1548
1478 1479 1481 1484 1486 1488 1489 1491 1491 1493 1495 1498 1499 1502 1504 1506 1508 1511 1513 1516 1519 1522 1525 1527 1530 1531 1533 1534 1536 1538 1538 1537 1537 1538 1539 1540 1541 1542 1543 1543 1543 1544 1543
1475 1475 1474 1475 1477 1479 1482 1483 1483 1483 1484 1487 1490 1494 1495 1497 1500 1504 1506 1508 1512 1515 1517 1519 1522 1524 1526 1527 1529 1529 1531 1532 1534 1535 1535 1535 1537 1537 1538 1538 1539 1539 1538
1474 1472 1471 1471 1471 1471 1473 1475 1477 1477 1478 1480 1482 1485 1486 1488 1490 1494 1498 1500 1503 1506 1508 1510 1513 1515 1518 1520 1521 1522 1524 1525 1527 1529 1530 1531 1532 1532 1534 1534 1534 1534 1533
1473 1471 1469 1468 1467 1467 1467 1469 1469 1471 1473 1473 1475 1476 1478 1479 1481 1483 1487 1491 1494 1496 1499 1501 1504 1507 1511 1513 1515 1516 1518 1519 1519 1521 1523 1525 1526 1525 1526 1528 1529 1528 1528